Wind_Speed
10 8 7 5 4 5 5 5 6 6 5 3 3 2 2 2 1 1 2 3 4 4 5 6 7 8 9 10 11 11 12 12 12 12 13 13 13 14 14 14 14 14 14 14 14 14 14 15 15 15 15 15 15 15 15 15 15 15 15 15 16 17 17 18 19 19 19 19 19 20 19 18 17 16 14 13 11 10 9 9 8 8 8 9 9
14 13 12 10 8 7 7 6 6 6 6 5 4 3 3 3 3 2 2 2 2 2 2 2 3 4 5 6 7 8 9 9 9 9 9 9 10 10 10 10 11 11 11 12 12 13 13 14 14 15 15 15 15 15 15 15 15 16 16 16 16 17 18 18 19 20 21 21 21 21 21 20 18 17 16 15 13 12 11 11 10 10 10 10 10
18 17 16 15 13 11 9 9 9 8 7 7 6 5 4 5 5 5 5 4 3 3 2 1 0 1 2 3 4 5 6 6 6 6 6 6 6 6 6 7 7 8 9 9 10 11 12 12 13 14 14 14 15 15 15 15 15 16 16 16 16 17 18 18 19 20 21 21 22 22 22 21 19 18 17 16 15 14 13 13 12 11 11 11 11
24 22 20 19 18 15 13 12 12 11 9 9 8 7 6 6 7 6 6 6 5 5 4 3 2 1 1 1 1 2 3 4 4 4 3 2 2 2 3 3 4 5 6 7 8 9 10 11 12 12 13 14 14 15 15 15 15 15 15 15 16 17 18 19 20 20 21 21 21 22 21 21 20 19 18 17 16 16 15 14 13 13 12 12 12
27 27 25 23 21 19 17 15 14 13 12 11 10 9 9 9 8 7 7 7 7 6 6 4 3 2 2 2 2 2 2 2 2 2 2 1 0 1 1 1 2 3 5 6 7 8 9 9 10 11 12 13 13 14 15 15 14 14 14 15 16 17 18 19 20 21 21 21 21 21 21 20 19 19 18 17 17 16 16 15 14 14 14 14 14
27 28 28 26 24 22 20 19 17 16 14 13 13 11 11 11 10 9 9 8 8 7 7 5 5 4 3 4 4 4 3 3 2 2 1 0 1 2 3 3 3 3 4 5 7 7 8 8 9 9 10 10 11 12 14 14 14 14 14 14 15 16 18 18 20 20 21 21 20 20 19 19 18 18 17 17 16 16 15 15 15 15 15 15 16
26 27 29 28 26 25 23 22 21 19 18 17 16 14 13 13 13 12 11 10 10 9 9 7 6 5 5 5 6 6 6 6 5 4 3 2 2 3 4 5 6 5 5 5 5 6 7 8 9 9 9 10 10 10 11 12 13 13 14 14 15 16 17 18 19 19 19 19 19 18 18 17 17 17 16 16 15 16 16 16 16 17 17 17 18
29 29 29 30 30 29 27 25 24 22 21 20 20 19 17 16 16 16 15 14 13 12 11 10 8 6 6 6 7 7 7 8 8 8 7 6 4 3 3 4 5 5 5 5 4 5 6 8 9 10 10 10 10 10 10 10 10 11 12 14 15 15 16 16 17 17 17 17 17 16 16 15 15 15 15 15 15 16 16 17 17 18 18 18 19
33 31 30 29 30 31 30 28 26 24 24 24 23 23 22 20 19 20 19 19 18 16 14 14 12 9 7 7 8 8 9 9 9 9 8 7 6 5 5 5 4 4 4 5 4 4 5 7 9 11 12 12 11 11 10 9 9 9 10 12 13 14 14 14 14 14 14 14 14 14 14 14 14 14 15 15 15 16 17 17 17 18 18 19 19
36 34 32 29 29 31 31 30 28 27 27 28 27 27 26 24 23 23 23 23 22 21 19 17 15 13 12 11 11 11 11 11 10 10 8 7 7 7 6 6 7 6 5 5 5 4 4 6 8 11 13 13 13 13 12 11 9 9 8 9 10 10 10 10 10 10 10 11 11 11 11 12 13 14 15 16 16 17 17 17 17 18 17 18 18
39 37 36 34 32 31 31 31 30 29 31 32 31 31 31 29 28 27 27 27 26 25 24 21 19 16 16 16 15 14 14 13 12 11 10 8 7 7 7 7 8 8 8 7 7 7 5 5 7 9 11 14 15 15 14 12 10 9 7 6 6 7 7 6 6 6 7 7 7 8 8 9 11 13 14 15 16 17 17 17 17 16 16 16 16
44 41 40 39 37 35 34 33 32 33 34 35 35 35 35 34 32 31 31 30 29 29 28 27 23 21 20 19 19 19 18 15 14 14 13 12 10 9 8 8 8 9 9 8 8 9 9 7 7 7 9 11 14 15 15 14 11 9 8 7 6 6 6 5 3 3 3 4 3 3 4 5 8 10 12 13 13 13 12 13 13 13 14 14 14
48 46 44 42 41 39 38 36 35 36 37 37 36 37 37 36 35 34 33 33 32 32 32 30 27 25 23 23 23 23 20 18 17 17 16 16 15 14 13 11 9 10 10 10 10 9 10 10 10 9 10 10 11 13 14 14 12 10 8 7 7 7 7 7 5 2 0 1 1 2 2 3 4 7 9 9 9 8 7 7 7 8 9 10 10
53 51 47 44 43 42 40 39 38 38 38 37 37 37 37 38 38 36 35 35 35 35 34 32 30 28 27 27 27 26 23 21 21 19 19 19 19 19 19 16 12 10 11 12 13 12 11 11 11 12 12 12 12 12 13 13 12 10 9 8 7 7 7 8 8 5 3 3 3 3 4 5 5 6 7 7 7 6 4 3 2 2 3 4 4
57 54 50 47 46 45 43 41 41 40 39 37 37 36 36 37 38 36 37 39 39 36 35 34 32 31 30 30 31 29 27 26 25 24 23 22 22 22 22 21 18 15 13 12 13 15 14 13 13 13 14 15 15 13 13 12 12 11 9 8 7 7 8 9 9 8 6 6 6 6 6 7 7 8 9 9 9 8 7 6 5 3 3 2 2
58 55 53 52 50 48 46 44 45 44 41 38 36 35 35 37 38 36 38 40 39 36 37 37 35 34 33 33 33 31 30 30 30 29 28 27 26 25 24 25 23 21 17 15 13 15 16 16 15 16 17 18 17 16 15 13 12 12 11 9 7 7 8 10 11 10 9 8 8 9 9 9 9 10 11 11 11 11 10 10 9 8 7 7 7
56 53 52 52 52 52 49 48 48 47 43 40 39 37 37 39 40 39 40 40 38 36 37 38 36 35 35 36 35 34 33 32 33 33 33 31 30 28 27 27 27 25 22 19 18 17 18 18 19 19 19 19 19 18 18 15 13 13 12 11 9 8 8 9 10 11 12 11 10 11 11 12 12 12 13 13 14 14 14 13 13 13 12 12 11
60 54 51 52 55 55 52 51 51 49 45 44 44 42 40 39 39 41 42 43 41 40 41 41 39 37 37 38 38 37 35 35 36 36 36 35 34 33 31 30 30 28 25 23 23 22 21 22 23 23 22 21 20 20 19 18 16 14 13 13 13 11 10 9 9 11 13 13 13 12 12 13 14 14 15 15 16 16 16 15 16 16 16 15 15
65 60 56 57 57 56 53 53 53 50 47 47 46 43 42 41 42 44 45 46 45 44 44 44 43 41 41 41 41 40 38 38 38 39 39 39 37 37 36 34 34 32 28 26 26 26 25 26 27 26 25 24 22 21 20 20 19 17 15 15 14 14 13 12 10 10 12 13 14 14 14 15 16 17 17 18 18 19 18 17 17 17 18 17 16
67 63 61 61 60 58 56 56 55 52 51 50 48 45 47 49 50 51 50 49 50 49 48 47 45 44 45 45 45 44 43 42 42 42 42 42 41 40 39 38 38 37 33 30 30 30 29 30 30 29 28 27 25 23 22 21 21 21 19 17 16 15 15 15 14 13 12 12 12 13 15 16 17 18 19 19 20 21 22 21 20 19 20 19 17
71 67 65 64 63 62 60 58 57 56 56 56 54 52 53 55 56 56 54 53 54 54 52 51 49 47 47 47 47 48 47 46 45 45 45 45 44 43 42 41 41 41 37 34 34 34 33 34 34 32 31 30 27 25 23 22 22 23 23 21 19 17 15 15 15 15 15 14 13 13 14 16 18 19 20 21 20 20 23 26 25 23 22 23 23
73 70 68 68 67 64 62 61 59 59 60 60 59 57 57 57 57 58 57 56 56 56 55 55 54 52 51 50 49 50 49 49 48 48 47 47 47 46 44 43 44 44 42 40 38 37 37 37 37 36 35 34 33 30 27 25 23 23 24 24 23 20 18 16 16 16 16 17 17 16 16 16 17 18 21 24 23 21 23 26 27 26 25 27 29
76 72 71 71 70 67 66 64 63 63 63 63 63 62 61 61 60 60 59 58 57 57 59 59 58 57 56 55 53 52 51 51 51 50 49 49 48 48 47 45 45 46 46 45 43 42 41 40 40 39 39 39 38 37 34 32 29 27 27 26 26 25 23 21 19 17 17 17 18 19 19 19 19 19 21 24 24 23 24 25 26 26 28 30 32
78 76 75 74 73 71 70 70 69 68 66 65 66 67 66 66 66 65 64 63 62 62 62 61 59 60 61 60 59 57 55 53 53 53 53 52 51 50 49 47 47 48 49 48 47 46 45 44 43 43 42 42 42 42 41 40 38 36 33 32 32 32 32 31 29 28 26 24 23 23 22 22 22 23 24 25 25 25 25 25 26 27 29 32 32
81 80 78 77 76 75 74 74 75 75 72 70 70 69 68 68 68 68 68 68 67 67 67 64 62 62 63 64 63 62 59 57 57 57 58 57 55 53 51 50 49 50 52 52 51 49 49 48 47 47 46 46 46 46 46 45 45 44 42 40 39 39 39 39 39 39 38 37 35 33 32 30 29 28 29 29 28 28 28 28 28 28 30 32 33
85 83 82 81 80 79 78 77 78 79 79 77 75 73 71 70 71 71 71 70 70 70 70 69 67 67 67 67 66 65 63 61 61 61 62 63 62 60 58 57 56 55 55 55 55 53 52 52 51 51 50 50 50 51 51 51 50 50 49 48 46 45 44 44 44 44 44 44 43 42 41 40 39 37 36 34 33 32 32 32 32 32 32 33 34
87 86 86 85 84 83 82 82 82 82 83 83 82 80 76 74 75 75 75 74 74 74 74 73 73 72 71 70 69 68 67 65 65 65 67 68 68 67 65 64 63 61 59 58 58 57 56 55 55 54 54 55 55 55 55 55 55 54 53 53 52 51 50 50 49 49 49 48 47 46 46 45 45 44 44 42 40 38 37 36 36 37 37 37 38
88 88 88 88 88 87 87 86 86 86 86 87 87 87 85 82 81 79 77 76 76 77 77 77 77 77 76 76 75 74 72 71 71 72 73 73 73 72 70 69 67 64 62 60 58 58 57 57 57 57 57 58 59 59 59 59 58 57 56 55 54 54 54 54 54 54 53 52 51 51 50 50 49 49 49 48 47 46 44 42 41 40 40 41 41
90 89 89 90 90 90 90 90 90 90 90 90 90 90 90 89 88 86 83 80 78 78 78 78 79 79 80 81 81 81 81 79 79 79 78 77 77 76 74 72 70 68 65 63 61 59 59 59 59 59 59 60 60 61 61 61 61 59 58 57 57 58 58 59 59 59 59 59 58 57 56 55 55 55 55 54 53 52 51 50 49 47 46 45 45
93 92 91 91 92 92 92 92 92 92 92 93 92 92 92 92 92 91 89 85 81 80 79 79 80 80 81 83 84 84 85 85 84 84 83 82 81 81 81 79 76 73 70 67 65 64 64 64 64 64 64 63 63 63 64 65 65 64 64 64 65 66 67 67 66 66 65 66 65 65 64 64 63 63 62 61 60 59 58 57 56 55 54 52 51
97 97 95 94 94 94 94 94 94 94 94 94 94 94 94 94 94 94 93 90 86 84 84 83 83 82 82 82 84 85 85 84 84 84 85 84 83 84 84 84 82 79 76 73 71 71 71 71 72 72 72 71 70 69 69 70 71 71 72 72 72 73 73 74 74 73 72 72 72 72 72 72 71 71 70 69 67 65 64 63 62 61 61 60 58
100 100 99 99 98 97 96 96 97 97 97 96 96 96 97 97 96 97 97 95 93 90 89 88 87 87 84 81 80 81 82 82 82 82 83 84 84 84 85 86 85 84 81 78 76 76 77 78 79 81 81 81 81 80 79 78 77 77 78 78 79 79 78 78 78 78 78 78 78 78 78 78 78 77 77 76 74 71 70 68 67 66 66 65 65
102 102 102 102 101 100 99 99 98 98 99 99 99 99 99 100 100 100 100 100 99 98 96 93 90 89 88 85 82 79 79 79 80 81 82 83 84 85 86 87 88 88 86 84 82 82 83 85 86 87 88 88 88 88 88 88 87 85 84 83 84 85 85 85 84 84 84 84 84 84 84 84 84 83 82 81 80 78 76 74 73 71 71 70 70
101 103 103 104 104 103 103 102 101 101 100 101 101 101 102 103 104 104 103 103 103 103 103 100 97 94 92 91 88 85 83 81 81 82 82 83 84 86 88 89 89 90 91 91 90 90 90 91 92 92 92 92 93 93 94 95 95 94 92 90 89 89 90 90 89 89 88 89 89 89 89 89 89 88 87 86 85 83 81 80 78 76 75 75 75
99 99 101 103 104 105 105 105 104 103 103 102 103 103 104 105 107 107 108 108 108 108 107 107 106 104 101 98 96 94 91 90 90 90 90 88 87 88 89 91 93 94 96 97 97 96 96 95 94 94 94 95 96 98 98 98 98 98 98 97 96 94 94 94 93 93 92 92 92 93 94 94 94 93 91 90 89 88 86 84 83 81 80 79 79
103 101 100 101 102 103 105 106 106 106 106 105 105 105 106 107 108 109 111 111 112 112 112 112 112 112 111 110 109 107 105 104 104 105 105 103 100 97 95 95 96 97 98 100 100 100 99 98 98 98 99 100 101 101 101 100 101 101 101 101 101 100 99 99 99 99 99 98 97 97 97 97 97 97 96 94 93 91 90 89 87 86 84 83 83
108 107 106 104 103 103 103 104 105 106 107 107 108 108 108 109 109 110 111 113 114 115 116 117 117 117 117 117 117 117 117 117 117 116 116 115 114 111 109 107 106 105 104 103 103 103 103 103 104 106 108 109 108 107 107 106 105 105 104 104 104 103 103 103 103 104 104 104 103 102 100 100 99 99 98 98 97 95 94 92 91 90 89 87 86
110 109 109 109 108 108 107 106 106 106 107 108 109 110 110 111 111 111 112 113 114 115 116 117 118 119 120 120 120 120 121 121 122 122 121 120 119 118 118 118 117 117 116 115 114 114 114 114 115 116 117 116 115 115 114 112 111 110 109 108 108 108 108 108 108 109 109 109 109 108 106 104 103 102 101 100 99 98 97 96 95 94 93 92 91
111 111 110 110 111 110 110 109 108 108 108 108 109 110 111 112 113 113 113 114 114 115 116 117 118 119 120 121 121 122 122 122 123 123 124 123 123 122 122 121 122 122 123 123 123 123 123 123 123 122 122 121 120 118 117 116 115 115 115 115 115 115 114 114 114 114 114 114 113 112 111 109 108 106 105 104 103 102 101 100 99 98 97 96 95
114 113 112 112 113 113 112 112 111 111 111 110 110 110 111 112 113 114 114 115 116 116 117 117 118 119 120 120 121 121 122 123 123 124 124 124 125 125 125 125 125 125 126 126 127 128 128 127 127 126 125 124 123 123 122 122 122 122 122 122 121 121 120 120 119 118 118 118 117 116 114 113 112 111 110 109 107 106 106 105 104 103 101 100 99
114 113 113 113 113 114 114 114 114 113 113 113 113 113 113 113 113 114 114 115 116 117 118 118 119 120 121 121 121 122 122 123 123 124 125 125 125 126 126 127 127 127 128 129 129 130 130 130 130 130 129 129 129 129 129 128 128 128 127 127 126 126 125 124 123 122 121 121 120 119 118 117 116 115 115 114 113 112 111 110 109 107 106 105 103
112 112 112 112 112 113 114 115 115 115 115 115 115 115 115 116 116 116 116 116 116 117 118 118 119 121 122 122 123 123 124 124 124 125 125 126 126 127 127 128 128 129 130 130 131 131 131 131 132 132 132 132 132 132 132 132 132 132 131 131 130 129 129 128 127 126 125 124 123 123 122 121 120 119 119 118 117 116 116 115 114 112 111 109 108
111 110 110 110 110 110 112 113 115 115 116 116 116 117 117 118 118 118 118 118 118 118 118 119 119 120 122 123 124 124 125 125 126 127 127 128 128 128 129 129 130 130 131 132 132 132 132 132 133 133 133 134 134 134 134 134 134 134 134 133 133 132 131 130 129 129 128 127 127 126 125 125 124 123 123 122 121 120 119 119 118 117 116 115 113
110 109 108 107 107 107 108 109 111 112 114 116 117 117 118 118 119 119 120 120 120 120 120 121 121 121 122 123 124 125 125 126 127 128 129 129 130 130 131 131 132 133 133 134 134 134 134 134 134 135 135 135 135 136 136 136 136 136 135 135 134 134 133 133 132 131 131 130 130 129 129 128 128 127 126 126 125 124 123 122 122 121 120 119 118
110 108 107 106 105 105 105 105 106 108 110 112 114 115 117 118 119 119 120 120 121 122 122 122 123 123 124 124 125 126 126 127 128 128 129 130 131 132 132 133 134 134 135 136 136 136 136 137 137 137 138 138 138 138 138 138 138 138 138 138 137 137 136 136 136 135 134 134 133 133 132 132 132 131 131 130 129 128 127 127 126 125 124 123 122
113 110 108 106 105 104 104 104 104 104 105 107 109 111 113 114 116 117 119 120 121 121 122 123 124 124 125 126 126 127 128 129 129 130 130 131 132 132 133 134 134 135 136 136 137 137 138 138 139 139 140 140 140 140 140 140 141 141 141 140 140 139 139 139 139 139 138 138 137 136 136 136 136 135 135 134 133 132 132 131 130 129 128 127 126
115 113 111 109 107 105 104 103 103 103 103 104 105 106 107 109 111 112 114 116 118 119 120 122 123 124 125 126 127 128 129 129 130 131 132 132 133 133 134 135 135 136 136 137 138 138 139 139 140 140 141 141 141 141 142 142 142 142 142 142 141 141 141 141 140 140 140 140 139 139 139 139 139 138 138 137 137 136 135 135 134 133 132 131 130
117 116 115 114 111 109 106 105 104 104 103 103 103 104 104 106 107 108 109 111 113 114 116 117 119 120 122 123 125 126 127 128 129 130 131 132 133 134 134 135 136 137 137 138 139 139 140 140 141 141 142 142 143 143 143 143 143 143 143 143 143 143 143 142 142 141 141 141 141 141 141 140 140 140 140 139 139 138 138 137 137 136 135 134 134
119 118 118 117 116 115 112 109 107 105 105 104 104 104 105 105 106 106 107 108 110 111 112 114 115 116 118 119 120 121 122 123 125 126 127 128 129 130 131 132 133 134 135 136 137 138 139 140 141 141 142 143 143 144 144 145 145 145 145 145 145 145 145 145 145 144 144 143 143 143 142 142 142 141 141 141 140 140 139 138 138 137 137 136 135
122 121 121 120 119 119 118 116 114 111 109 107 106 106 106 106 106 107 107 108 109 109 110 111 112 113 114 115 116 117 118 119 119 120 121 122 123 124 125 126 128 129 130 131 132 133 134 135 137 138 139 140 141 142 143 144 144 145 145 146 146 146 146 146 147 147 146 146 145 145 145 144 144 143 143 142 142 141 140 140 139 138 138 137 137
125 124 123 123 122 122 121 120 119 118 116 114 112 110 109 108 108 108 108 109 110 111 111 112 113 114 114 115 115 116 117 118 118 119 120 121 122 123 123 124 125 126 127 128 129 129 130 131 132 133 135 136 137 138 139 140 141 141 142 143 143 143 144 144 145 145 146 146 146 146 146 146 145 145 144 144 143 142 141 141 140 140 139 139 139
Wind_Direction
237 241 252 269 286 300 310 320 323 326 328 334 343 349 350 351 11 73 84 86 85 82 77 76 81 85 85 84 81 79 76 74 73 71 69 68 66 65 64 62 61 60 59 59 59 58 56 54 52 51 51 50 49 47 45 43 41 39 36 34 33 32 32 32 33 37 42 43 42 42 44 45 43 44 47 49 52 58 65 72 73 71 68 68 70
244 244 248 256 261 268 280 287 291 296 301 304 313 315 301 288 275 243 210 175 144 126 103 83 82 88 90 91 90 87 83 79 76 72 69 68 67 65 62 59 57 56 53 50 49 48 47 46 44 43 43 42 42 42 41 40 39 38 36 34 32 31 30 31 32 34 38 41 43 44 45 48 49 49 51 52 56 62 66 70 72 71 69 68 70
246 244 245 248 250 251 258 265 268 271 275 280 285 291 284 273 266 253 235 220 215 215 209 221 249 90 98 100 101 102 96 92 87 82 75 71 69 66 62 56 51 48 44 41 39 37 36 35 34 34 33 32 32 33 34 34 34 33 33 31 29 28 27 28 29 32 34 36 40 42 44 47 51 51 51 52 55 60 64 67 70 72 73 74 74
246 244 243 244 245 244 247 253 257 258 262 268 273 274 274 271 267 259 247 235 232 235 233 234 245 258 240 183 141 132 123 115 109 104 95 84 74 72 62 53 46 38 33 31 28 27 26 24 23 23 22 21 20 20 22 24 27 28 26 25 25 24 23 25 26 28 30 32 34 38 41 45 48 51 52 53 55 59 63 65 68 71 75 80 83
248 244 242 244 246 245 246 252 255 256 258 263 268 268 269 272 270 259 252 247 240 239 243 245 244 247 252 256 250 223 183 151 140 132 125 113 340 309 320 352 16 22 24 22 21 19 16 15 13 11 12 12 10 10 10 12 15 18 20 19 20 20 20 22 25 26 26 29 32 33 37 43 46 49 52 54 56 60 64 68 71 75 80 86 92
252 247 243 243 247 249 250 254 256 256 256 257 258 260 265 271 268 254 248 251 249 243 241 244 247 250 255 260 263 259 251 237 217 196 185 249 318 322 322 324 330 347 5 11 13 12 7 4 1 359 358 0 1 1 1 3 5 7 10 13 16 18 19 21 24 25 24 27 31 34 36 43 47 49 52 55 59 64 70 75 80 83 88 93 97
252 250 244 240 242 246 249 253 255 257 258 257 255 253 256 262 262 253 245 246 250 250 243 238 239 244 253 257 261 263 263 260 258 253 250 255 286 322 331 333 333 333 340 351 357 359 355 351 348 345 345 347 350 353 354 357 359 0 2 6 10 14 16 18 22 24 24 26 31 36 40 45 51 54 56 60 65 70 75 80 85 89 92 95 98
246 248 245 240 237 239 243 247 250 254 259 260 259 258 257 257 256 255 250 246 245 247 247 244 240 238 248 255 257 262 264 266 266 263 261 257 252 262 289 308 319 322 320 320 325 336 344 344 341 339 337 337 339 342 344 349 355 359 0 1 4 8 11 14 18 21 24 26 30 38 45 50 56 62 65 68 72 76 79 81 85 88 90 93 96
244 247 248 243 238 237 241 245 247 250 254 257 257 258 257 256 256 256 255 251 247 244 245 250 249 245 248 256 258 261 264 268 274 276 279 280 271 258 253 256 262 274 287 291 293 311 332 344 349 347 342 337 335 334 335 340 349 360 3 0 359 1 5 10 15 18 23 28 32 42 53 59 64 70 73 76 79 82 84 85 86 88 89 92 95
244 245 248 246 240 238 240 242 244 248 252 253 253 253 252 254 259 261 257 252 250 247 246 249 253 252 253 257 261 261 261 265 277 284 288 296 295 286 279 276 266 256 259 276 288 302 325 341 352 355 352 347 339 333 331 334 344 355 360 356 353 355 359 6 15 21 25 29 35 46 61 72 77 81 83 85 86 87 89 89 90 91 92 95 98
244 243 245 246 244 240 239 238 240 244 249 250 251 250 250 254 261 264 261 254 250 249 248 247 248 248 249 252 256 257 257 260 270 276 276 280 292 300 304 302 293 278 266 267 279 290 305 331 343 347 350 351 348 343 339 338 341 345 345 340 336 340 346 353 12 32 37 36 38 45 63 84 93 96 98 98 97 96 94 93 93 93 95 97 100
245 243 243 245 245 243 241 239 241 245 247 247 249 250 251 255 260 264 261 256 251 249 249 249 248 246 245 247 250 252 253 256 263 268 269 269 274 285 294 299 298 292 282 272 275 284 293 305 319 328 334 340 344 347 348 346 343 339 333 326 320 321 322 323 336 27 48 48 52 54 68 94 109 115 115 114 111 107 102 99 98 98 99 100 102
246 244 243 244 246 246 244 243 246 249 249 248 249 250 252 255 259 260 259 255 252 249 248 248 250 249 250 252 253 253 253 253 256 262 267 268 269 274 281 285 288 291 291 285 283 289 294 297 300 307 315 321 328 338 344 347 346 342 334 325 318 314 307 301 294 287 346 43 125 154 155 152 145 141 139 135 131 125 117 110 105 103 106 107 108
247 246 245 245 246 247 247 246 248 252 252 251 250 249 250 253 256 257 254 251 251 251 248 248 250 251 254 256 258 259 258 254 251 253 259 265 266 268 272 275 276 278 283 285 286 289 296 300 299 299 304 308 312 320 329 337 343 343 338 329 318 307 296 288 280 266 253 253 246 217 195 197 201 192 181 174 170 167 165 162 138 114 116 116 113
249 249 248 246 245 246 247 249 250 251 251 249 247 246 248 252 255 254 249 247 249 251 250 249 250 251 253 254 256 260 262 259 254 251 252 256 258 261 265 270 272 271 270 273 279 282 286 293 298 299 301 303 304 306 312 322 331 337 338 334 324 308 293 282 275 266 255 246 246 244 231 220 220 221 217 212 207 207 211 219 232 250 258 260 266
251 252 250 248 246 246 248 250 251 250 247 244 242 243 245 250 253 250 245 246 249 249 249 249 249 250 252 254 255 257 258 259 257 255 255 255 255 256 260 265 268 270 268 266 267 272 275 280 289 294 297 298 299 299 300 306 314 320 324 328 328 319 300 286 279 276 268 255 247 246 245 241 236 235 237 236 232 230 230 231 238 246 252 260 271
248 249 248 247 247 248 249 250 249 246 242 240 240 241 243 248 251 248 244 244 245 245 246 247 247 248 251 254 256 256 256 256 256 255 257 258 258 258 258 261 264 266 266 265 265 266 267 269 274 278 282 289 292 291 291 293 298 305 308 311 315 316 309 298 292 288 283 273 260 253 252 253 251 248 248 249 248 248 246 245 245 246 246 248 257
243 243 243 243 244 246 248 247 244 239 237 238 239 240 240 243 246 244 242 242 243 243 245 247 247 247 250 253 255 255 255 255 255 253 254 256 259 260 261 262 264 264 263 263 263 264 265 265 267 267 271 278 283 282 281 285 287 292 297 299 301 303 305 309 304 296 289 284 277 269 264 263 263 261 259 259 259 258 256 254 254 256 258 257 259
243 241 239 239 240 241 243 243 239 234 234 237 237 235 234 235 238 242 243 242 242 243 244 246 247 248 248 249 251 252 252 253 254 253 251 252 254 258 260 262 264 264 264 264 264 264 263 263 266 267 268 272 275 274 273 276 280 282 285 288 291 294 297 301 304 299 294 290 287 283 278 276 274 271 269 270 269 267 264 259 257 261 265 262 262
243 240 240 240 240 240 241 239 235 232 231 232 230 227 229 233 237 243 244 242 241 242 243 245 246 247 247 247 247 249 251 251 252 251 250 249 250 252 256 258 261 262 262 263 264 264 263 264 266 268 267 269 272 273 271 270 273 277 279 280 282 285 288 291 294 296 296 297 294 291 289 287 283 279 276 275 274 275 275 270 264 263 265 264 264
242 241 241 241 239 239 239 236 234 232 231 229 228 228 231 234 238 241 242 240 240 241 243 244 245 246 248 248 247 249 250 250 249 249 249 249 249 249 251 255 258 259 259 260 262 264 264 266 269 271 270 269 270 273 274 272 271 273 276 277 278 279 280 283 287 291 296 299 300 298 296 294 293 292 290 284 278 277 278 277 273 269 269 270 267
240 240 240 239 238 236 234 232 232 233 232 230 229 230 232 235 238 240 239 239 241 244 244 245 245 245 246 246 246 246 248 249 248 248 248 249 249 249 250 252 254 256 256 258 259 261 262 265 268 272 273 272 270 270 271 274 276 276 276 276 275 274 275 277 280 285 291 296 298 298 296 293 293 293 290 285 279 272 269 271 271 268 268 268 264
239 238 238 238 237 235 232 230 230 231 231 231 231 232 234 236 238 239 238 238 242 246 247 246 245 244 245 245 245 245 246 247 248 249 250 250 250 250 251 251 252 252 253 254 256 258 259 261 264 268 271 274 274 271 268 269 272 276 278 277 275 273 275 278 280 284 287 289 292 294 293 291 289 284 279 277 276 272 269 270 270 268 267 267 265
238 237 236 236 236 234 232 230 229 229 231 232 234 235 237 238 239 240 240 240 243 245 246 246 246 246 245 245 246 246 246 246 248 250 252 252 250 250 250 251 251 251 251 252 254 255 256 257 259 262 264 268 271 272 270 269 270 273 275 275 275 275 276 279 282 285 287 289 290 290 291 290 288 284 280 279 279 278 277 277 276 273 271 270 268
237 236 235 235 235 234 232 231 231 231 231 232 234 236 237 238 239 239 240 241 242 243 243 244 245 245 245 245 245 246 246 246 249 252 254 253 251 250 250 251 252 253 253 254 255 255 255 255 256 258 260 263 265 268 270 271 272 273 274 273 273 274 276 278 280 281 283 284 285 287 287 288 287 286 285 284 283 281 280 279 279 279 278 277 274
236 235 235 234 234 234 233 232 232 233 233 234 234 235 235 236 236 238 239 239 240 241 241 242 243 244 245 245 245 245 246 248 251 255 256 255 253 251 252 254 256 255 255 255 255 256 256 256 256 257 259 261 263 264 267 269 271 272 273 273 273 273 274 276 277 279 280 281 281 282 283 284 285 285 284 284 283 282 281 280 280 279 279 280 279
236 235 235 234 234 234 233 233 233 234 235 236 236 235 235 236 236 237 238 239 240 240 241 241 243 244 245 246 246 246 247 248 250 254 256 256 254 253 254 256 257 256 255 253 254 255 257 257 257 257 258 261 263 264 266 267 268 268 269 269 270 271 273 274 275 276 278 278 279 280 280 281 282 282 282 282 282 282 281 281 280 279 278 278 279
237 236 235 235 234 234 234 234 234 234 235 236 237 237 238 238 238 238 238 239 241 242 242 243 244 245 246 246 247 247 247 248 251 253 255 256 255 254 254 256 256 255 253 251 251 253 255 257 259 259 259 260 262 264 265 266 266 265 265 265 266 267 270 271 273 274 275 276 277 278 278 278 279 280 281 280 280 280 280 279 279 279 279 278 278
239 238 237 236 235 235 235 234 234 235 235 236 237 238 238 239 240 240 239 240 241 242 244 245 246 246 247 248 248 249 250 250 252 253 254 255 255 254 254 255 255 253 250 249 250 251 254 257 259 261 261 261 261 261 262 262 263 262 262 263 264 266 267 269 270 272 273 274 275 276 276 277 278 279 280 280 279 279 278 277 277 277 277 278 278
238 238 238 237 236 236 235 235 235 235 235 236 236 237 238 239 239 240 240 240 240 241 243 245 246 247 248 248 249 249 250 250 251 252 253 254 254 253 253 254 254 252 249 248 249 251 254 256 258 260 261 261 261 260 259 259 258 259 260 262 265 267 268 269 270 270 271 272 274 274 275 276 277 278 279 280 280 279 278 277 276 276 276 276 276
237 237 237 237 237 236 236 235 235 235 235 235 236 236 237 238 238 239 239 239 239 240 242 244 245 245 246 247 247 248 248 248 249 250 251 252 252 252 252 253 253 251 249 248 250 252 254 256 258 259 260 261 261 261 260 259 259 259 259 261 262 264 266 267 269 269 270 271 272 273 274 275 276 277 278 279 280 279 278 277 276 276 275 275 275
236 236 237 237 237 237 236 236 236 235 235 235 235 235 236 236 237 238 239 239 239 240 242 243 243 243 242 243 244 245 246 247 248 248 249 250 250 250 250 251 251 250 248 248 250 252 254 256 258 260 262 263 263 263 262 262 262 262 262 262 262 262 263 264 265 266 268 270 271 272 273 274 275 276 277 278 279 279 278 278 277 275 274 274 274
236 236 237 237 237 237 237 237 237 236 236 236 236 235 235 236 236 237 238 239 239 240 241 242 241 241 240 240 241 241 243 244 246 247 248 249 249 249 249 249 249 249 248 249 250 253 255 257 259 260 262 263 264 264 265 265 265 265 265 265 265 265 264 264 264 265 266 268 269 270 272 273 274 275 276 277 277 278 278 277 276 275 274 273 272
237 237 237 237 238 238 238 238 238 238 237 237 237 236 236 236 236 237 238 239 240 241 242 242 242 241 240 240 240 240 240 241 243 245 247 248 249 249 249 249 249 249 249 250 251 253 254 256 257 259 260 261 262 264 265 266 266 267 268 268 269 268 267 266 266 266 267 268 268 269 270 271 272 273 274 275 275 276 276 276 275 274 273 272 272
238 238 238 239 239 239 239 239 239 239 239 238 238 238 237 237 237 238 238 239 240 241 242 243 243 243 243 242 241 241 241 241 243 245 247 248 249 249 249 249 249 249 250 251 251 253 254 255 256 257 258 260 263 265 266 266 266 267 268 269 269 269 269 268 267 267 268 269 269 269 269 269 269 270 270 271 272 273 273 273 273 273 272 271 271
240 240 240 240 240 240 240 240 240 240 240 240 240 240 239 239 239 239 239 240 240 241 242 243 244 245 245 245 245 245 245 245 246 248 250 251 251 250 250 250 249 250 250 251 251 252 253 254 255 257 260 262 264 265 266 266 267 268 268 269 269 270 270 269 268 268 269 270 271 271 270 270 269 269 269 269 269 270 271 271 271 271 270 270 269
243 242 242 241 241 241 241 242 242 242 242 241 241 241 241 241 241 241 241 241 241 242 243 243 244 245 246 246 247 248 249 249 250 251 253 253 253 253 253 252 252 253 253 252 252 253 253 254 256 258 261 264 265 265 266 266 267 267 268 269 269 270 270 270 271 271 271 272 273 273 272 271 270 269 269 268 268 269 269 269 269 269 269 269 268
244 244 243 243 242 242 242 243 243 243 243 243 243 243 243 243 243 243 243 243 243 243 244 244 245 246 246 247 247 248 249 250 251 252 253 254 255 255 255 254 255 255 255 256 256 256 257 258 260 261 263 265 265 266 266 266 266 267 267 268 269 269 270 270 271 271 272 272 273 273 273 273 272 271 270 269 269 269 269 269 269 269 269 268 267
245 245 245 244 244 243 244 244 244 244 244 244 244 244 244 245 245 245 245 245 245 245 246 246 246 247 247 248 248 249 249 250 251 252 253 254 254 255 255 255 255 256 256 257 257 258 259 261 262 263 264 265 265 265 265 265 266 266 267 268 269 269 269 270 270 270 271 271 272 272 272 272 272 271 270 270 270 269 270 270 270 269 269 268 268
246 246 246 246 246 245 245 245 245 245 245 245 245 245 246 246 246 246 246 246 247 247 247 248 248 249 249 249 249 250 250 251 252 252 253 253 254 255 255 255 256 256 257 257 258 258 259 260 261 262 263 264 264 265 265 265 266 267 267 268 268 269 269 269 270 270 270 271 271 271 272 271 271 271 271 270 270 270 270 270 270 270 269 269 268
246 247 248 248 248 248 248 247 247 247 247 247 247 247 247 247 247 247 247 247 248 248 248 249 249 250 251 251 251 251 252 252 253 253 253 254 254 255 255 256 256 256 257 257 258 258 259 260 261 261 262 262 263 264 264 265 266 266 267 267 268 268 269 269 269 269 270 270 270 270 270 270 270 270 270 270 270 270 270 270 270 270 269 269 268
245 246 248 248 249 249 249 249 249 249 249 249 249 249 248 248 248 248 248 248 249 249 249 250 250 251 251 252 252 253 253 253 254 254 255 255 255 256 256 256 257 257 257 258 258 259 259 260 260 261 261 262 262 263 263 264 265 265 266 266 267 267 268 268 269 269 269 269 269 269 269 269 269 269 269 269 269 269 269 269 269 269 269 269 268
245 246 246 247 248 248 249 249 249 249 249 250 250 250 250 250 250 250 250 250 250 250 250 250 250 251 252 252 253 253 254 254 254 255 255 256 256 256 257 257 258 258 258 259 259 260 260 260 261 261 261 262 262 263 263 264 264 265 265 265 266 266 266 267 267 267 268 268 268 268 268 268 269 268 268 268 268 268 268 268 268 268 268 268 268
247 247 246 247 247 247 248 248 249 249 249 249 250 250 251 251 251 251 251 251 251 251 251 251 251 251 252 252 253 253 254 254 255 255 256 256 257 257 257 258 258 259 259 260 260 260 261 261 261 262 262 262 263 263 263 264 264 264 265 265 265 265 266 266 266 266 266 266 267 267 267 267 267 267 267 267 267 267 267 267 267 267 267 267 267
251 249 249 248 248 248 248 248 248 249 249 250 250 250 250 251 251 252 252 252 252 253 253 253 253 253 253 253 253 254 254 254 255 255 256 256 257 257 258 258 258 259 259 260 260 261 261 261 262 262 262 262 263 263 263 264 264 264 264 264 265 265 265 265 266 266 266 266 266 266 266 266 266 266 266 266 266 266 266 266 266 266 266 266 266
254 253 252 251 250 250 249 249 249 249 249 250 250 251 251 251 252 252 252 253 253 253 254 254 254 254 254 254 254 255 255 255 255 255 256 256 257 257 257 258 258 259 259 260 260 261 261 261 262 262 262 263 263 263 263 264 264 264 264 264 264 265 265 265 265 265 265 266 266 266 266 266 266 266 266 266 266 266 266 266 266 266 266 266 266
256 256 256 255 253 252 251 251 251 251 251 251 251 251 252 252 253 253 253 253 254 254 254 255 255 255 256 256 256 256 256 256 257 257 257 257 257 258 258 258 259 259 259 260 260 261 261 261 262 262 262 263 263 263 263 264 264 264 264 264 265 265 265 265 265 265 265 265 266 266 266 266 266 266 266 266 266 266 266 266 266 265 265 265 265
254 255 257 258 257 256 255 253 252 252 252 252 252 252 253 253 253 254 254 255 255 255 256 256 256 256 257 257 257 257 258 258 258 258 259 259 259 259 260 260 260 260 261 261 261 261 262 262 262 262 263 263 263 264 264 264 264 264 265 265 265 265 265 265 265 265 265 265 265 265 266 266 266 266 266 266 266 266 266 266 266 266 265 265 265
252 253 254 256 258 259 259 258 256 255 254 253 253 253 253 254 254 255 255 256 256 257 257 257 257 258 258 258 258 259 259 259 259 260 260 260 260 260 261 261 261 262 262 262 262 262 263 263 263 263 263 264 264 264 264 265 265 265 265 265 265 266 266 266 266 266 266 266 265 265 265 265 265 265 265 265 266 266 266 266 266 266 266 265 265
250 252 253 254 256 257 258 259 260 260 259 258 257 256 255 255 255 255 256 256 257 257 258 258 259 259 259 260 260 260 260 261 261 261 261 261 261 261 261 262 262 262 262 262 263 263 263 263 263 264 264 264 264 265 265 265 265 266 266 266 266 266 266 267 267 267 267 267 267 266 266 266 266 266 266 266 266 265 265 266 266 266 266 265 265
250 251 252 253 254 256 257 258 259 260 261 261 261 260 260 259 258 257 257 257 257 258 258 259 259 259 260 260 261 261 262 262 262 262 263 263 263 263 263 263 263 263 263 263 263 263 263 264 264 264 264 264 265 265 265 266 266 266 267 267 268 268 268 268 268 268 268 268 268 268 267 267 267 266 266 266 266 266 265 265 265 265 265 265 265
Height
11020 11021 11022 11022 11022 11023 11023 11024 11024 11024 11024 11024 11024 11024 11024 11024 11023 11022 11021 11021 11021 11021 11021 11021 11021 11020 11020 11019 11019 11018 11018 11017 11017 11017 11016 11016 11016 11015 11015 11014 11013 11013 11012 11011 11011 11010 11009 11009 11008 11008 11007 11007 11006 11006 11005 11004 11003 11002 11001 11000 10999 10998 10996 10995 10994 10993 10992 10991 10990 10988 10987 10986 10984 10983 10981 10980 10979 10977 10976 10975 10975 10974 10973 10972 10972
11018 11019 11020 11021 11021 11022 11022 11023 11023 11023 11024 11024 11024 11024 11023 11023 11023 11022 11021 11021 11021 11021 11021 11021 11021 11021 11020 11020 11020 11019 11019 11018 11018 11018 11017 11017 11016 11016 11016 11015 11014 11014 11013 11012 11012 11011 11010 11010 11009 11009 11008 11007 11006 11006 11005 11005 11004 11003 11002 11001 10999 10998 10997 10995 10994 10993 10992 10991 10990 10989 10988 10986 10985 10984 10982 10981 10980 10979 10977 10976 10975 10975 10974 10973 10973
11015 11016 11018 11019 11019 11020 11021 11021 11022 11022 11023 11023 11023 11023 11023 11023 11022 11022 11022 11021 11021 11021 11021 11021 11021 11021 11021 11020 11020 11019 11019 11019 11019 11018 11018 11018 11017 11017 11016 11016 11015 11014 11014 11013 11012 11012 11011 11011 11010 11009 11009 11008 11007 11006 11005 11005 11004 11003 11002 11001 11000 10998 10997 10996 10995 10993 10992 10991 10990 10989 10988 10987 10986 10985 10983 10982 10981 10980 10979 10978 10976 10976 10975 10974 10974
11012 11013 11014 11016 11017 11018 11019 11019 11020 11021 11022 11022 11022 11022 11022 11022 11022 11022 11022 11021 11021 11021 11021 11021 11021 11020 11020 11020 11019 11019 11019 11019 11018 11018 11018 11018 11017 11017 11016 11016 11015 11015 11014 11014 11013 11013 11012 11012 11011 11010 11009 11009 11008 11007 11006 11005 11004 11003 11002 11001 11000 10999 10998 10997 10995 10994 10993 10992 10991 10990 10989 10988 10987 10986 10985 10983 10982 10981 10980 10979 10978 10977 10976 10976 10975
11010 11011 11012 11013 11014 11016 11017 11017 11018 11019 11020 11021 11021 11022 11022 11022 11022 11022 11022 11021 11021 11021 11020 11020 11020 11020 11020 11020 11019 11019 11018 11018 11018 11018 11017 11017 11017 11016 11016 11015 11015 11014 11014 11014 11013 11013 11013 11012 11012 11011 11010 11009 11008 11008 11007 11006 11005 11004 11003 11002 11001 11000 10999 10998 10997 10996 10995 10994 10992 10991 10990 10989 10988 10987 10986 10985 10983 10983 10982 10981 10980 10979 10979 10978 10977
11007 11009 11010 11010 11011 11013 11014 11015 11016 11016 11018 11019 11019 11020 11021 11021 11021 11021 11021 11021 11021 11020 11020 11020 11020 11020 11020 11019 11019 11018 11018 11018 11017 11017 11017 11017 11016 11016 11016 11015 11015 11015 11014 11014 11013 11013 11013 11012 11012 11011 11010 11010 11009 11008 11007 11006 11005 11004 11003 11002 11002 11001 11000 10999 10999 10998 10997 10995 10994 10993 10992 10991 10990 10989 10988 10987 10986 10985 10984 10983 10982 10982 10981 10980 10980
11004 11006 11007 11008 11009 11010 11011 11013 11014 11014 11015 11016 11017 11018 11018 11019 11020 11020 11020 11020 11020 11020 11020 11019 11019 11019 11019 11019 11018 11018 11018 11017 11017 11017 11016 11016 11016 11016 11016 11016 11015 11015 11015 11014 11014 11013 11013 11012 11012 11011 11011 11010 11009 11008 11007 11006 11005 11005 11004 11003 11003 11002 11002 11001 11000 10999 10999 10998 10997 10996 10995 10993 10992 10991 10990 10989 10988 10987 10987 10986 10985 10985 10984 10983 10982
11000 11001 11003 11005 11006 11007 11008 11009 11011 11012 11013 11014 11015 11015 11016 11016 11017 11017 11018 11019 11019 11019 11019 11018 11018 11018 11018 11018 11017 11017 11017 11016 11016 11016 11015 11015 11015 11015 11015 11015 11015 11015 11015 11015 11014 11014 11013 11012 11012 11011 11011 11010 11009 11008 11007 11006 11006 11005 11005 11004 11004 11003 11003 11002 11002 11001 11000 10999 10999 10998 10997 10996 10995 10994 10993 10992 10991 10990 10990 10989 10989 10988 10987 10986 10986
10996 10998 11000 11002 11004 11005 11006 11007 11008 11009 11010 11011 11012 11013 11013 11014 11014 11014 11015 11016 11017 11017 11017 11017 11017 11017 11016 11016 11016 11016 11016 11015 11015 11015 11015 11014 11014 11014 11014 11014 11014 11014 11014 11014 11014 11014 11013 11012 11012 11011 11011 11010 11009 11008 11007 11007 11006 11006 11006 11005 11005 11004 11004 11003 11003 11002 11002 11001 11001 11000 10999 10999 10998 10997 10996 10995 10994 10993 10992 10992 10991 10991 10990 10990 10990
10993 10995 10997 10999 11001 11002 11004 11005 11006 11006 11007 11007 11009 11010 11010 11011 11011 11011 11012 11013 11014 11014 11014 11014 11015 11015 11015 11015 11014 11014 11014 11014 11014 11014 11014 11014 11014 11013 11013 11013 11013 11013 11013 11013 11013 11013 11013 11012 11012 11011 11011 11010 11010 11009 11008 11007 11007 11007 11006 11006 11005 11005 11004 11004 11004 11004 11003 11003 11002 11002 11001 11001 11000 11000 10999 10998 10997 10996 10995 10995 10994 10994 10993 10993 10993
10989 10991 10993 10995 10997 10998 11000 11002 11003 11003 11003 11003 11004 11006 11006 11007 11008 11009 11009 11010 11010 11011 11011 11012 11012 11012 11012 11013 11013 11012 11012 11012 11013 11013 11013 11013 11013 11013 11013 11012 11012 11012 11012 11012 11012 11012 11012 11012 11012 11011 11011 11010 11010 11009 11009 11008 11008 11007 11006 11006 11005 11005 11005 11004 11004 11005 11005 11004 11004 11004 11003 11003 11003 11002 11002 11001 11000 11000 10999 10998 10998 10997 10997 10996 10997
10984 10987 10989 10990 10992 10993 10995 10997 10999 11000 11000 11000 11001 11002 11003 11004 11005 11005 11006 11006 11007 11008 11008 11008 11009 11009 11009 11010 11010 11010 11010 11011 11011 11011 11011 11012 11012 11012 11012 11012 11012 11011 11011 11011 11011 11011 11011 11011 11011 11011 11010 11010 11009 11009 11009 11008 11008 11007 11007 11006 11006 11006 11005 11005 11005 11005 11005 11005 11005 11005 11005 11005 11004 11004 11004 11003 11003 11002 11002 11002 11001 11001 11000 11000 11000
10979 10981 10983 10986 10987 10989 10990 10992 10994 10995 10997 10998 10999 11000 11000 11000 11001 11001 11002 11003 11004 11004 11004 11005 11006 11006 11007 11007 11007 11007 11008 11008 11009 11009 11009 11010 11010 11010 11010 11010 11010 11010 11010 11010 11010 11010 11010 11010 11010 11010 11009 11009 11008 11008 11008 11008 11008 11007 11006 11006 11006 11006 11005 11005 11005 11005 11005 11005 11005 11005 11006 11006 11005 11005 11005 11005 11005 11004 11004 11004 11003 11003 11003 11003 11002
10972 10975 10978 10982 10983 10984 10986 10988 10989 10991 10993 10995 10995 10996 10996 10995 10995 10997 10998 10999 10999 11000 11001 11002 11003 11003 11004 11004 11004 11004 11006 11006 11006 11006 11007 11007 11008 11008 11008 11009 11009 11009 11008 11009 11009 11009 11009 11009 11009 11009 11008 11008 11007 11007 11007 11007 11007 11007 11006 11006 11005 11005 11005 11004 11004 11004 11005 11005 11005 11005 11006 11006 11006 11006 11006 11006 11005 11005 11005 11005 11005 11005 11005 11005 11004
10967 10970 10974 10977 10979 10980 10982 10983 10984 10986 10988 10990 10991 10991 10991 10990 10991 10992 10993 10993 10996 10998 10998 10999 11000 11000 11001 11001 11000 11002 11003 11003 11003 11003 11003 11004 11004 11005 11005 11006 11006 11006 11006 11007 11007 11007 11007 11007 11008 11008 11007 11007 11006 11006 11006 11006 11006 11006 11005 11005 11004 11004 11004 11003 11003 11004 11004 11004 11005 11005 11005 11005 11006 11006 11006 11006 11006 11006 11006 11006 11006 11006 11006 11006 11005
10964 10966 10969 10972 10974 10976 10977 10978 10979 10980 10982 10985 10986 10986 10986 10986 10986 10988 10988 10989 10992 10995 10995 10995 10996 10997 10997 10997 10997 10998 10999 11000 11000 11000 11000 11000 11000 11001 11002 11002 11003 11004 11004 11004 11005 11005 11005 11005 11006 11005 11005 11005 11005 11004 11004 11004 11004 11005 11005 11004 11003 11003 11002 11002 11002 11002 11003 11003 11004 11004 11004 11005 11005 11005 11005 11005 11005 11006 11006 11006 11006 11006 11007 11006 11006
10960 10961 10963 10967 10969 10970 10972 10974 10974 10974 10976 10978 10980 10982 10982 10982 10982 10983 10984 10984 10987 10989 10989 10990 10991 10992 10993 10992 10993 10994 10994 10995 10996 10996 10996 10996 10997 10997 10998 10999 11000 11000 11001 11002 11002 11002 11003 11003 11003 11003 11002 11002 11003 11003 11003 11002 11002 11003 11003 11003 11003 11002 11001 11001 11001 11001 11001 11002 11002 11003 11004 11004 11004 11004 11005 11005 11005 11005 11005 11006 11006 11006 11006 11006 11006
10951 10954 10957 10960 10961 10962 10966 10968 10967 10968 10970 10972 10974 10976 10976 10977 10978 10978 10979 10979 10981 10983 10984 10984 10986 10987 10988 10987 10988 10989 10990 10990 10991 10992 10992 10993 10993 10993 10994 10995 10996 10997 10998 10998 10999 10999 11000 11000 11000 11000 11000 11000 11000 11000 11000 11000 11000 11000 11001 11001 11001 11001 11000 11000 10999 10999 10999 11000 11000 11001 11002 11003 11003 11004 11004 11004 11004 11004 11005 11005 11006 11006 11006 11006 11006
10941 10946 10947 10949 10951 10954 10957 10959 10960 10962 10965 10966 10968 10970 10971 10972 10973 10973 10973 10974 10975 10976 10977 10978 10981 10982 10981 10981 10983 10984 10985 10985 10986 10987 10988 10989 10989 10990 10990 10992 10993 10993 10994 10996 10996 10996 10996 10996 10996 10996 10997 10997 10997 10997 10997 10997 10998 10998 10998 10999 10999 10999 10999 10998 10998 10998 10998 10998 10998 10999 11000 11001 11002 11003 11003 11003 11003 11003 11004 11005 11005 11005 11005 11005 11006
10932 10936 10938 10940 10944 10947 10950 10952 10954 10956 10958 10959 10962 10964 10964 10964 10965 10966 10966 10968 10968 10969 10970 10972 10975 10975 10974 10975 10977 10978 10979 10980 10981 10982 10983 10984 10985 10985 10986 10987 10988 10989 10991 10993 10993 10993 10993 10992 10992 10993 10993 10994 10994 10994 10994 10994 10995 10995 10996 10996 10996 10996 10996 10996 10996 10996 10996 10996 10996 10997 10998 10999 11001 11002 11002 11002 11002 11002 11003 11003 11004 11005 11005 11005 11004
10922 10927 10931 10932 10935 10939 10943 10945 10947 10949 10951 10953 10955 10956 10955 10955 10957 10958 10959 10960 10961 10962 10964 10966 10968 10968 10968 10969 10971 10972 10972 10974 10975 10976 10977 10978 10979 10980 10981 10982 10983 10984 10986 10988 10989 10989 10989 10988 10988 10989 10990 10990 10991 10991 10991 10991 10991 10992 10992 10993 10993 10993 10993 10994 10994 10994 10994 10994 10995 10995 10995 10997 10999 11000 11001 11001 11001 11001 11001 11001 11002 11004 11004 11005 11003
10913 10919 10922 10922 10925 10931 10935 10937 10939 10941 10942 10945 10948 10949 10948 10948 10951 10952 10953 10954 10955 10956 10957 10959 10961 10962 10962 10963 10964 10965 10966 10967 10968 10970 10972 10973 10974 10975 10976 10977 10978 10979 10981 10982 10983 10984 10985 10984 10984 10985 10986 10986 10987 10988 10988 10987 10987 10988 10988 10989 10989 10990 10990 10990 10990 10991 10991 10992 10992 10992 10993 10994 10996 10997 10998 10999 10998 10997 10996 10996 10997 10999 11000 11001 11000
10904 10909 10912 10913 10916 10922 10926 10928 10930 10931 10934 10937 10940 10941 10942 10942 10943 10945 10947 10949 10949 10949 10949 10950 10953 10955 10956 10956 10957 10958 10959 10960 10962 10963 10966 10967 10968 10969 10971 10972 10973 10974 10975 10976 10977 10978 10979 10980 10980 10980 10981 10982 10982 10983 10983 10984 10984 10984 10984 10985 10986 10986 10986 10987 10987 10988 10988 10989 10989 10990 10990 10992 10993 10993 10994 10995 10994 10993 10992 10992 10992 10992 10993 10994 10995
10894 10898 10901 10903 10907 10911 10916 10919 10921 10922 10925 10929 10931 10933 10935 10935 10936 10938 10940 10942 10943 10941 10940 10942 10946 10948 10948 10949 10950 10951 10953 10954 10955 10957 10959 10960 10962 10963 10964 10965 10967 10968 10969 10969 10970 10972 10973 10974 10974 10975 10976 10977 10977 10978 10978 10979 10979 10979 10980 10980 10981 10981 10982 10982 10983 10983 10984 10985 10985 10986 10987 10988 10989 10989 10990 10990 10990 10989 10989 10988 10988 10987 10987 10987 10988
10882 10887 10890 10893 10897 10901 10906 10910 10912 10913 10917 10920 10921 10924 10927 10928 10929 10930 10931 10934 10935 10933 10933 10936 10939 10939 10939 10940 10942 10944 10946 10947 10949 10951 10952 10954 10955 10956 10957 10958 10960 10961 10962 10963 10964 10965 10965 10967 10968 10969 10970 10971 10971 10972 10972 10973 10973 10974 10974 10975 10975 10975 10976 10977 10977 10978 10978 10979 10980 10981 10982 10983 10984 10984 10985 10985 10985 10985 10984 10984 10984 10983 10983 10982 10982
10871 10875 10879 10883 10887 10890 10895 10900 10902 10904 10908 10910 10912 10914 10918 10920 10920 10921 10922 10925 10926 10926 10927 10930 10931 10931 10931 10932 10934 10936 10938 10940 10942 10944 10946 10947 10948 10949 10950 10951 10952 10954 10955 10956 10957 10957 10958 10959 10960 10962 10963 10964 10964 10965 10966 10967 10968 10968 10968 10969 10969 10969 10970 10970 10971 10971 10972 10973 10974 10975 10976 10976 10977 10978 10979 10979 10980 10980 10980 10979 10979 10979 10978 10977 10976
10859 10864 10869 10872 10876 10879 10884 10889 10892 10894 10897 10900 10902 10905 10909 10911 10911 10912 10914 10916 10917 10917 10919 10921 10922 10923 10924 10925 10927 10929 10931 10932 10934 10936 10939 10940 10941 10941 10943 10943 10944 10946 10947 10948 10949 10950 10950 10951 10952 10954 10955 10956 10957 10958 10959 10960 10961 10961 10962 10962 10962 10963 10963 10964 10964 10965 10965 10966 10967 10968 10968 10969 10970 10971 10972 10972 10973 10974 10975 10974 10974 10973 10973 10972 10971
10847 10852 10857 10861 10864 10868 10872 10877 10881 10884 10886 10889 10891 10895 10898 10900 10902 10903 10905 10906 10907 10908 10909 10912 10914 10916 10917 10918 10919 10921 10923 10925 10926 10928 10930 10932 10933 10933 10935 10936 10936 10937 10938 10940 10941 10941 10942 10943 10944 10945 10947 10948 10949 10950 10951 10952 10953 10953 10954 10955 10955 10956 10957 10957 10957 10958 10958 10959 10960 10960 10961 10961 10962 10962 10963 10964 10966 10967 10968 10969 10968 10968 10967 10967 10966
10834 10839 10844 10848 10852 10856 10860 10864 10868 10871 10875 10877 10880 10884 10887 10889 10891 10893 10894 10896 10898 10899 10900 10902 10904 10907 10908 10910 10911 10913 10914 10916 10917 10918 10921 10923 10924 10925 10926 10927 10928 10928 10929 10930 10931 10932 10933 10934 10935 10936 10938 10939 10941 10942 10943 10944 10945 10945 10946 10947 10948 10948 10949 10950 10950 10951 10951 10952 10952 10953 10953 10954 10954 10954 10955 10956 10957 10958 10960 10961 10962 10962 10961 10961 10960
10820 10825 10830 10834 10839 10843 10847 10851 10854 10858 10862 10866 10869 10872 10876 10878 10880 10882 10884 10886 10888 10890 10892 10893 10894 10896 10898 10900 10901 10903 10904 10906 10908 10909 10910 10913 10915 10916 10917 10918 10919 10919 10920 10920 10921 10922 10923 10924 10925 10927 10928 10930 10931 10933 10934 10935 10937 10937 10938 10939 10939 10940 10941 10941 10942 10943 10944 10944 10945 10945 10945 10946 10946 10946 10946 10947 10948 10949 10950 10951 10953 10954 10954 10954 10954
10806 10810 10815 10820 10824 10829 10833 10837 10841 10845 10849 10853 10857 10861 10864 10867 10869 10871 10873 10875 10877 10879 10882 10884 10885 10886 10887 10888 10890 10892 10893 10896 10897 10899 10900 10902 10904 10905 10907 10908 10909 10910 10910 10910 10911 10911 10912 10914 10915 10916 10918 10919 10921 10923 10924 10925 10926 10928 10929 10930 10931 10931 10932 10932 10932 10933 10934 10935 10936 10936 10937 10937 10937 10937 10937 10938 10939 10940 10940 10942 10943 10944 10945 10945 10945
10793 10797 10801 10805 10810 10815 10819 10823 10828 10832 10836 10840 10845 10849 10852 10855 10858 10860 10862 10864 10866 10869 10871 10873 10875 10877 10877 10878 10879 10881 10882 10884 10886 10888 10889 10890 10892 10894 10896 10897 10898 10899 10900 10900 10900 10901 10902 10903 10904 10905 10907 10908 10910 10911 10912 10913 10915 10916 10918 10920 10921 10922 10922 10923 10923 10923 10924 10925 10926 10926 10927 10927 10927 10927 10927 10927 10928 10929 10930 10931 10932 10934 10934 10935 10935
10780 10784 10788 10792 10797 10801 10806 10810 10815 10819 10824 10828 10833 10837 10840 10843 10846 10848 10851 10853 10855 10858 10860 10863 10865 10866 10868 10869 10870 10871 10872 10874 10875 10876 10877 10879 10880 10882 10884 10885 10886 10887 10888 10888 10889 10889 10891 10892 10893 10894 10895 10896 10897 10898 10899 10901 10902 10904 10905 10907 10909 10910 10911 10912 10913 10913 10914 10914 10915 10916 10916 10916 10917 10917 10916 10916 10917 10918 10919 10920 10921 10922 10923 10924 10925
10768 10772 10776 10780 10784 10789 10793 10798 10802 10807 10811 10816 10820 10824 10828 10831 10833 10836 10839 10841 10844 10846 10848 10851 10853 10855 10857 10858 10860 10861 10863 10864 10865 10866 10867 10868 10869 10871 10872 10873 10875 10876 10876 10877 10877 10878 10879 10879 10880 10881 10883 10884 10885 10886 10887 10888 10889 10891 10892 10893 10895 10896 10898 10899 10900 10901 10902 10903 10904 10905 10905 10906 10906 10906 10905 10905 10906 10907 10908 10909 10910 10911 10911 10912 10913
10756 10761 10764 10768 10772 10777 10782 10786 10790 10794 10799 10804 10808 10811 10814 10817 10820 10823 10826 10829 10831 10834 10836 10838 10840 10842 10844 10846 10848 10850 10851 10852 10853 10854 10855 10857 10858 10859 10860 10861 10862 10863 10864 10865 10865 10866 10866 10867 10867 10868 10869 10870 10871 10872 10874 10875 10876 10877 10879 10880 10881 10882 10883 10885 10886 10887 10888 10889 10891 10892 10893 10893 10894 10895 10895 10895 10895 10895 10896 10897 10898 10899 10899 10900 10901
10744 10749 10753 10757 10761 10765 10769 10773 10777 10782 10786 10791 10794 10797 10800 10803 10807 10809 10812 10815 10818 10820 10823 10825 10827 10829 10831 10833 10835 10836 10838 10839 10840 10841 10842 10844 10846 10848 10849 10850 10850 10851 10852 10852 10852 10853 10853 10854 10854 10854 10855 10857 10857 10858 10859 10860 10861 10862 10864 10865 10866 10867 10869 10870 10871 10872 10873 10874 10876 10877 10878 10879 10880 10881 10882 10882 10883 10883 10884 10885 10885 10886 10887 10888 10888
10731 10735 10740 10745 10749 10753 10756 10760 10765 10769 10773 10777 10781 10784 10787 10790 10793 10795 10798 10801 10804 10806 10808 10810 10812 10815 10817 10819 10821 10823 10824 10826 10827 10828 10828 10830 10832 10834 10836 10837 10838 10839 10839 10839 10839 10839 10839 10840 10841 10841 10842 10843 10844 10845 10846 10846 10847 10848 10849 10849 10850 10851 10853 10854 10855 10856 10857 10858 10860 10861 10862 10863 10864 10865 10867 10868 10868 10869 10870 10871 10872 10873 10873 10874 10875
10717 10721 10726 10731 10736 10740 10743 10748 10752 10756 10759 10763 10767 10770 10773 10775 10778 10782 10785 10788 10790 10792 10794 10795 10797 10800 10801 10804 10807 10809 10810 10812 10813 10813 10814 10815 10817 10819 10821 10822 10823 10824 10824 10825 10825 10825 10825 10826 10826 10827 10828 10829 10830 10831 10831 10832 10833 10834 10834 10835 10836 10836 10837 10838 10839 10840 10840 10841 10843 10844 10845 10847 10848 10849 10850 10851 10852 10854 10855 10856 10857 10858 10859 10860 10861
10703 10708 10712 10717 10722 10726 10730 10734 10738 10741 10745 10749 10752 10755 10758 10760 10764 10768 10771 10774 10776 10778 10780 10781 10783 10785 10786 10788 10791 10794 10796 10797 10798 10799 10799 10801 10802 10804 10805 10806 10807 10808 10808 10808 10809 10809 10809 10810 10811 10811 10812 10813 10814 10815 10816 10817 10818 10818 10819 10820 10821 10821 10822 10823 10823 10824 10824 10825 10826 10827 10828 10830 10831 10832 10833 10835 10836 10837 10838 10840 10841 10842 10844 10845 10845
10690 10694 10699 10703 10707 10712 10716 10720 10723 10727 10731 10734 10738 10740 10743 10745 10749 10753 10756 10759 10761 10763 10765 10768 10769 10770 10771 10773 10776 10778 10780 10782 10783 10784 10784 10785 10786 10787 10789 10790 10791 10792 10792 10792 10792 10793 10793 10794 10795 10796 10797 10797 10798 10799 10799 10800 10801 10802 10803 10804 10804 10805 10806 10807 10807 10808 10808 10808 10809 10810 10811 10812 10813 10814 10815 10817 10818 10820 10822 10823 10824 10825 10827 10828 10829
10676 10681 10685 10690 10694 10697 10701 10705 10708 10712 10716 10720 10723 10725 10728 10730 10734 10738 10741 10744 10746 10748 10751 10753 10755 10755 10755 10757 10760 10763 10764 10765 10766 10767 10768 10769 10770 10771 10772 10773 10774 10775 10775 10775 10775 10776 10777 10778 10779 10780 10780 10780 10781 10781 10782 10783 10783 10784 10785 10786 10787 10788 10788 10790 10791 10792 10792 10792 10792 10792 10793 10794 10795 10796 10797 10798 10800 10802 10803 10805 10806 10807 10809 10810 10812
10663 10667 10671 10675 10679 10683 10686 10690 10693 10697 10701 10705 10708 10710 10713 10716 10719 10722 10725 10728 10731 10733 10735 10738 10740 10740 10740 10741 10744 10746 10747 10749 10750 10751 10752 10753 10754 10754 10755 10756 10757 10757 10757 10757 10757 10759 10760 10762 10762 10762 10762 10762 10763 10764 10764 10765 10765 10766 10767 10768 10769 10770 10771 10772 10773 10774 10775 10776 10775 10775 10775 10776 10776 10777 10778 10780 10782 10783 10785 10786 10787 10788 10789 10791 10793
10649 10653 10657 10661 10664 10668 10672 10675 10679 10682 10686 10689 10692 10695 10697 10700 10703 10706 10709 10712 10714 10717 10719 10722 10724 10725 10725 10725 10727 10728 10730 10732 10733 10734 10735 10735 10736 10737 10738 10739 10739 10739 10739 10738 10739 10741 10743 10744 10743 10743 10744 10744 10745 10745 10746 10746 10746 10747 10748 10749 10750 10751 10752 10753 10754 10755 10756 10757 10756 10756 10757 10757 10757 10758 10759 10760 10762 10764 10765 10766 10767 10768 10770 10771 10773
10633 10639 10643 10647 10651 10654 10657 10661 10664 10667 10670 10673 10676 10679 10681 10684 10686 10689 10692 10695 10697 10700 10702 10705 10707 10709 10709 10709 10710 10711 10713 10714 10715 10716 10717 10717 10718 10719 10720 10721 10721 10721 10720 10720 10721 10723 10724 10724 10724 10725 10725 10726 10726 10726 10727 10727 10727 10728 10728 10729 10730 10731 10732 10733 10735 10735 10735 10736 10737 10737 10738 10737 10737 10737 10739 10740 10742 10743 10744 10746 10747 10748 10750 10751 10752
10616 10623 10628 10632 10636 10640 10643 10646 10650 10653 10655 10658 10661 10663 10666 10668 10670 10672 10675 10677 10680 10682 10685 10687 10689 10691 10692 10693 10693 10694 10695 10696 10697 10698 10699 10699 10700 10701 10702 10702 10703 10702 10702 10702 10704 10705 10704 10704 10704 10705 10706 10706 10706 10707 10707 10707 10707 10708 10708 10709 10710 10711 10712 10713 10713 10713 10714 10715 10717 10717 10717 10716 10716 10716 10718 10720 10721 10722 10723 10725 10726 10727 10729 10730 10732
10597 10604 10610 10616 10621 10625 10628 10631 10635 10638 10641 10643 10645 10648 10650 10653 10655 10657 10659 10661 10663 10665 10667 10669 10670 10672 10673 10675 10676 10676 10677 10678 10679 10680 10681 10681 10681 10682 10682 10683 10684 10684 10683 10684 10685 10685 10685 10685 10685 10685 10685 10686 10686 10686 10686 10686 10686 10687 10687 10687 10689 10691 10692 10691 10691 10691 10692 10693 10694 10695 10695 10695 10695 10695 10696 10697 10698 10699 10701 10703 10705 10706 10707 10709 10710
10580 10584 10590 10596 10602 10608 10613 10616 10620 10623 10626 10628 10631 10633 10635 10637 10640 10642 10644 10646 10647 10649 10650 10652 10653 10654 10655 10656 10658 10658 10659 10659 10660 10661 10662 10662 10663 10663 10663 10663 10664 10664 10665 10665 10665 10665 10665 10665 10665 10665 10665 10664 10665 10665 10665 10665 10665 10665 10665 10665 10667 10668 10669 10669 10670 10671 10671 10671 10672 10672 10673 10673 10673 10673 10674 10675 10675 10676 10678 10680 10681 10683 10684 10686 10688
10569 10571 10574 10577 10581 10587 10593 10599 10604 10607 10610 10613 10616 10618 10620 10622 10624 10626 10628 10630 10631 10632 10634 10635 10636 10637 10638 10639 10639 10640 10641 10641 10642 10643 10643 10644 10644 10645 10644 10644 10644 10644 10645 10645 10645 10644 10644 10644 10644 10644 10644 10643 10643 10643 10643 10643 10643 10643 10643 10644 10645 10645 10644 10645 10647 10649 10650 10650 10650 10650 10649 10650 10650 10651 10651 10651 10652 10653 10654 10656 10657 10658 10660 10662 10664
10557 10560 10562 10564 10567 10569 10573 10578 10584 10589 10594 10597 10600 10603 10605 10607 10609 10611 10612 10613 10615 10616 10617 10618 10619 10619 10620 10621 10622 10622 10623 10623 10624 10624 10624 10625 10625 10625 10625 10625 10624 10624 10624 10624 10624 10623 10623 10623 10623 10623 10623 10622 10622 10621 10621 10620 10620 10621 10621 10622 10623 10622 10622 10621 10622 10623 10625 10626 10626 10626 10626 10626 10627 10627 10628 10628 10629 10630 10631 10632 10633 10634 10635 10637 10639
10545 10547 10550 10553 10555 10558 10560 10562 10566 10569 10574 10578 10583 10586 10589 10592 10594 10596 10597 10598 10599 10600 10600 10601 10602 10602 10603 10603 10604 10604 10604 10605 10605 10605 10605 10605 10605 10605 10606 10605 10605 10604 10603 10603 10603 10603 10602 10602 10601 10601 10600 10600 10600 10600 10599 10599 10599 10599 10599 10599 10600 10600 10599 10598 10598 10598 10598 10600 10601 10601 10601 10602 10602 10603 10603 10604 10605 10606 10608 10609 10610 10611 10612 10612 10613
10532 10535 10538 10541 10543 10546 10548 10550 10553 10555 10557 10560 10563 10567 10570 10574 10577 10579 10581 10582 10584 10584 10585 10585 10586 10586 10586 10586 10586 10586 10586 10587 10587 10587 10586 10586 10586 10585 10585 10585 10585 10584 10584 10583 10583 10583 10582 10581 10581 10580 10579 10579 10579 10578 10578 10579 10579 10578 10578 10577 10578 10577 10577 10576 10575 10574 10574 10574 10574 10574 10574 10575 10576 10577 10577 10578 10579 10581 10583 10585 10586 10588 10588 10589 10589